H-2A R/B (27601 NORAD) Tracking and Keplerian Element Data

This shows tracking and keplerian element data for the satellite.

Feedback or suggestion? Click here.




ElementValue
Catalog27601
NameH-2A R/B
Epoch Orbit83594
Epoch Day349.17455424
Epoch Year2018
RAAN40.9367
Inclination98.3044
Eccentricity0.0073248
Argument of Perigee114.5738
Mean Anonmoly309.2918
Mean Motion14.31868896
Decay Rate2E-07
L11 27601U 02056E 18349.17455424 .00000020 00000-0 21950-4 0 9999
L22 27601 98.3044 40.9367 0073248 114.5738 309.2918 14.31868896835943

Live tracking and technical data element details for H-2A R/B (NORAD 27601). H-2A R/B can be tracked NOW for your location showing map with azimuth and elevation plus other details from your city location.

Track the satellite on the map from your city or location and see movement details for azimuth, elevation, latitude, longitude, range, height, and movement on the map or in text.







IsCatalogInMostPopularTable: catalog: 27601, numindb: 42
Update: records affected: 1



GetName: 27601 H-2A R/B

Hit Count: updated at: Sun, 16 Dec 2018 03:26:27 GMT